Home   Weather   San Francisco   Past weeks

Flag for USA Past Weather in San Francisco, California, USA — Yesterday and Last 2 Weeks

Now
46 °F

Passing clouds.


Feels Like: 40 °F
Forecast: 44 / 56 °F
Wind: 15 mph from East

Location: San Francisco International Airport

Current Time: Jan 16, 2017 at 5:02:11 am

Latest Report: Jan 16, 2017 at 3:56 am


Visibility: 10 mi

Pressure: 30.14 "Hg

Humidity: 77%

Dew Point: 39 °F

Location of San FranciscoLocation

Past Weather in San Francisco — Graph

°F

San Francisco Temperature Yesterday

Maximum temperature yesterday: 52 °F (at 1:56 pm)
Minimum temperature yesterday: 43 °F (at 3:56 am)
Average temperature yesterday: 48 °F

High & Low Weather Summary for the Past Weeks

 TemperatureHumidityPressure
High64 °F (Jan 8, 11:56 am)97% (Jan 7, 11:29 pm)30.25 "Hg (Jan 7, 11:29 pm)
Low39 °F (Jan 6, 3:56 am)44% (Jan 13, 3:56 pm)29.68 "Hg (Jan 10, 6:56 pm)
Average52 °F78%29.99 "Hg
* Reported Jan 1 3:56 am — Jan 16 3:56 am, San Francisco, Weather by CustomWeather, © 2017

Note: Actual official high and low records may vary slightly from our data, if they occured in-between our weather recording intervals... More about our weather records

Advertising

San Francisco Weather History for the Previous 24 Hours

Scroll right to see more
 ConditionsComfort  
Time TempWeatherWind HumidityBarometerVisibility
3:56 am
Mon, Jan 16
46 °FPassing clouds.15 mph77%30.14 "Hg10 mi
2:56 am47 °FPassing clouds.10 mph77%30.14 "Hg10 mi
1:56 am48 °FPassing clouds.12 mph71%30.14 "Hg10 mi
12:56 am47 °FPassing clouds.5 mph83%30.14 "Hg10 mi
11:56 pm
Sun, Jan 15
45 °FClear.No wind82%30.15 "Hg10 mi
10:56 pm46 °FClear.3 mph83%30.16 "Hg10 mi
9:56 pm46 °FClear.No wind79%30.16 "Hg10 mi
8:56 pm48 °FClear.No wind83%30.14 "Hg10 mi
7:56 pm47 °FClear.6 mph86%30.14 "Hg10 mi
6:56 pm49 °FClear.6 mph71%30.13 "Hg10 mi
5:56 pm50 °FPassing clouds.No wind71%30.13 "Hg10 mi
4:56 pm51 °FPassing clouds.6 mph71%30.12 "Hg10 mi
3:56 pm52 °FSunny.3 mph66%30.11 "Hg10 mi
2:56 pm52 °FPassing clouds.No wind66%30.11 "Hg10 mi
1:56 pm52 °FPassing clouds.6 mph69%30.12 "Hg9 mi
12:56 pm51 °FPassing clouds.3 mph69%30.13 "Hg9 mi
11:56 am50 °FPassing clouds.6 mph74%30.15 "Hg8 mi
10:56 am48 °FHaze.No wind80%30.18 "Hg6 mi
9:56 am46 °FPartly sunny.6 mph86%30.18 "Hg7 mi
8:56 am46 °FMostly cloudy.No wind89%30.17 "Hg8 mi
7:56 am46 °FMostly cloudy.6 mph89%30.15 "Hg7 mi
6:56 am46 °FMostly cloudy.No wind89%30.14 "Hg8 mi
5:56 am47 °FMostly cloudy.3 mph86%30.13 "Hg7 mi
5:09 am47 °FLow clouds.5 mph86%30.14 "Hg10 mi
Weather by CustomWeather, © 2017

See weather overviewHow to use our weather pages